����������;��������(kVARh)
2018-02-12 00:00;7
2018-02-12 00:15;9,65
2018-02-12 00:30;10,55
2018-02-12 00:45;11,7
2018-02-12 01:00;11,65
2018-02-12 01:15;12,55
2018-02-12 01:30;10,8
2018-02-12 01:45;13,7
2018-02-12 02:00;13,8
2018-02-12 02:15;16,4
2018-02-12 02:30;15,35
2018-02-12 02:45;17,4
2018-02-12 03:00;16,25
2018-02-12 03:15;16,95
2018-02-12 03:30;17,2
2018-02-12 03:45;17,8
2018-02-12 04:00;17,55
2018-02-12 04:15;16,55
2018-02-12 04:30;17,35
2018-02-12 04:45;16,85
2018-02-12 05:00;15,15
2018-02-12 05:15;15,8
2018-02-12 05:30;17,45
2018-02-12 05:45;15,25
2018-02-12 06:00;14,65
2018-02-12 06:15;14,2
2018-02-12 06:30;12,7
2018-02-12 06:45;10,6
2018-02-12 07:00;8,9
2018-02-12 07:15;10,35
2018-02-12 07:30;11,2
2018-02-12 07:45;12,75
2018-02-12 08:00;22,2
2018-02-12 08:15;29,15
2018-02-12 08:30;31,8
2018-02-12 08:45;51
2018-02-12 09:00;62,95
2018-02-12 09:15;66,15
2018-02-12 09:30;48,1
2018-02-12 09:45;41,15
2018-02-12 10:00;40,1
2018-02-12 10:15;46
2018-02-12 10:30;50,55
2018-02-12 10:45;51,75
2018-02-12 11:00;49,7
2018-02-12 11:15;53,15
2018-02-12 11:30;50,9
2018-02-12 11:45;49,95
2018-02-12 12:00;45,9
2018-02-12 12:15;45,9
2018-02-12 12:30;45,3
2018-02-12 12:45;48,8
2018-02-12 13:00;48,2
2018-02-12 13:15;49,7
2018-02-12 13:30;45,9
2018-02-12 13:45;47,3
2018-02-12 14:00;44,25
2018-02-12 14:15;45,8
2018-02-12 14:30;49,35
2018-02-12 14:45;50,05
2018-02-12 15:00;52
2018-02-12 15:15;52,85
2018-02-12 15:30;49,75
2018-02-12 15:45;48,5
2018-02-12 16:00;44,65
2018-02-12 16:15;42,95
2018-02-12 16:30;40,95
2018-02-12 16:45;39,5
2018-02-12 17:00;42,8
2018-02-12 17:15;35,7
2018-02-12 17:30;32,7
2018-02-12 17:45;35
2018-02-12 18:00;31,2
2018-02-12 18:15;26,2
2018-02-12 18:30;20,8
2018-02-12 18:45;24
2018-02-12 19:00;21,3
2018-02-12 19:15;19,95
2018-02-12 19:30;18,4
2018-02-12 19:45;18,35
2018-02-12 20:00;19,65
2018-02-12 20:15;22,1
2018-02-12 20:30;22,45
2018-02-12 20:45;23,2
2018-02-12 21:00;20,5
2018-02-12 21:15;24,3
2018-02-12 21:30;22,6
2018-02-12 21:45;21,75
2018-02-12 22:00;20,35
2018-02-12 22:15;21,8
2018-02-12 22:30;21,75
2018-02-12 22:45;24,45
2018-02-12 23:00;24,4
2018-02-12 23:15;20,6
2018-02-12 23:30;22,45
2018-02-12 23:45;23,2
2018-02-13 00:00;19,1
2018-02-13 00:15;22,95
2018-02-13 00:30;20,65
2018-02-13 00:45;22,25
2018-02-13 01:00;25,55
2018-02-13 01:15;20,65
2018-02-13 01:30;17,8
2018-02-13 01:45;19,8
2018-02-13 02:00;16,05
2018-02-13 02:15;19,35
2018-02-13 02:30;18,7
2018-02-13 02:45;19,4
2018-02-13 03:00;11,9
2018-02-13 03:15;11,65
2018-02-13 03:30;11,85
2018-02-13 03:45;11,85
2018-02-13 04:00;12,05
2018-02-13 04:15;12,3
2018-02-13 04:30;13,5
2018-02-13 04:45;12,2
2018-02-13 05:00;12,4
2018-02-13 05:15;11,9
2018-02-13 05:30;12,05
2018-02-13 05:45;9,7
2018-02-13 06:00;11,85
2018-02-13 06:15;10,85
2018-02-13 06:30;10,75
2018-02-13 06:45;8,4
2018-02-13 07:00;9,6
2018-02-13 07:15;10,95
2018-02-13 07:30;12,5
2018-02-13 07:45;24,05
2018-02-13 08:00;23,5
2018-02-13 08:15;28,1
2018-02-13 08:30;29
2018-02-13 08:45;32,6
2018-02-13 09:00;31,2
2018-02-13 09:15;35
2018-02-13 09:30;34,15
2018-02-13 09:45;35,8
2018-02-13 10:00;38,9
2018-02-13 10:15;44,5
2018-02-13 10:30;46
2018-02-13 10:45;57,6
2018-02-13 11:00;59,15
2018-02-13 11:15;60,9
2018-02-13 11:30;60,15
2018-02-13 11:45;60
2018-02-13 12:00;53,9
2018-02-13 12:15;50,7
2018-02-13 12:30;51,85
2018-02-13 12:45;51,9
2018-02-13 13:00;50,55
2018-02-13 13:15;51,15
2018-02-13 13:30;51,25
2018-02-13 13:45;53,25
2018-02-13 14:00;53,6
2018-02-13 14:15;51,2
2018-02-13 14:30;48,15
2018-02-13 14:45;51,95
2018-02-13 15:00;49,25
2018-02-13 15:15;47,05
2018-02-13 15:30;43,3
2018-02-13 15:45;42,1
2018-02-13 16:00;39,7
2018-02-13 16:15;37,15
2018-02-13 16:30;36,85
2018-02-13 16:45;34,6
2018-02-13 17:00;30,2
2018-02-13 17:15;32,75
2018-02-13 17:30;32,15
2018-02-13 17:45;28,9
2018-02-13 18:00;29,25
2018-02-13 18:15;24,75
2018-02-13 18:30;21
2018-02-13 18:45;21,9
2018-02-13 19:00;20,7
2018-02-13 19:15;19,5
2018-02-13 19:30;21,25
2018-02-13 19:45;23,3
2018-02-13 20:00;22,95
2018-02-13 20:15;27,3
2018-02-13 20:30;24,05
2018-02-13 20:45;22,55
2018-02-13 21:00;22,7
2018-02-13 21:15;22,75
2018-02-13 21:30;22,15
2018-02-13 21:45;20,45
2018-02-13 22:00;18,25
2018-02-13 22:15;17,7
2018-02-13 22:30;19,35
2018-02-13 22:45;17,8
2018-02-13 23:00;14,95
2018-02-13 23:15;13,5
2018-02-13 23:30;12,05
2018-02-13 23:45;9,45
2018-02-14 00:00;0,25
2018-02-14 00:15;0
2018-02-14 00:30;0,3
2018-02-14 00:45;0,4
2018-02-14 01:00;1,15
2018-02-14 01:15;0,5
2018-02-14 01:30;2,6
2018-02-14 01:45;1,75
2018-02-14 02:00;7,15
2018-02-14 02:15;11,15
2018-02-14 02:30;8,35
2018-02-14 02:45;10,8
2018-02-14 03:00;11,7
2018-02-14 03:15;10,8
2018-02-14 03:30;11,45
2018-02-14 03:45;10,2
2018-02-14 04:00;13,8
2018-02-14 04:15;11,6
2018-02-14 04:30;13,35
2018-02-14 04:45;10,9
2018-02-14 05:00;12,2
2018-02-14 05:15;10,05
2018-02-14 05:30;12,25
2018-02-14 05:45;9,7
2018-02-14 06:00;10,65
2018-02-14 06:15;9,3
2018-02-14 06:30;9,15
2018-02-14 06:45;8,2
2018-02-14 07:00;6,1
2018-02-14 07:15;13,55
2018-02-14 07:30;17,8
2018-02-14 07:45;22,35
2018-02-14 08:00;22,45
2018-02-14 08:15;31
2018-02-14 08:30;31,05
2018-02-14 08:45;33,95
2018-02-14 09:00;42,15
2018-02-14 09:15;49,1
2018-02-14 09:30;51,2
2018-02-14 09:45;53,35
2018-02-14 10:00;54,55
2018-02-14 10:15;55,9
2018-02-14 10:30;57,15
2018-02-14 10:45;59,3
2018-02-14 11:00;48,65
2018-02-14 11:15;53,1
2018-02-14 11:30;54,05
2018-02-14 11:45;52,75
2018-02-14 12:00;51,85
2018-02-14 12:15;54,2
2018-02-14 12:30;53,9
2018-02-14 12:45;53,5
2018-02-14 13:00;50,95
2018-02-14 13:15;52
2018-02-14 13:30;52,55
2018-02-14 13:45;53,35
2018-02-14 14:00;53,05
2018-02-14 14:15;49,8
2018-02-14 14:30;49,75
2018-02-14 14:45;50,1
2018-02-14 15:00;46,6
2018-02-14 15:15;46,4
2018-02-14 15:30;45,95
2018-02-14 15:45;40,7
2018-02-14 16:00;40,7
2018-02-14 16:15;39,2
2018-02-14 16:30;39,1
2018-02-14 16:45;36,7
2018-02-14 17:00;38,6
2018-02-14 17:15;34,65
2018-02-14 17:30;38,35
2018-02-14 17:45;36,15
2018-02-14 18:00;35,8
2018-02-14 18:15;34,5
2018-02-14 18:30;30,75
2018-02-14 18:45;26,05
2018-02-14 19:00;25,3
2018-02-14 19:15;21,9
2018-02-14 19:30;20,3
2018-02-14 19:45;25,25
2018-02-14 20:00;21,6
2018-02-14 20:15;22,6
2018-02-14 20:30;19,7
2018-02-14 20:45;21,25
2018-02-14 21:00;18,5
2018-02-14 21:15;13,95
2018-02-14 21:30;14,85
2018-02-14 21:45;10
2018-02-14 22:00;12
2018-02-14 22:15;10,8
2018-02-14 22:30;9,6
2018-02-14 22:45;10,5
2018-02-14 23:00;12,3
2018-02-14 23:15;12,1
2018-02-14 23:30;8
2018-02-14 23:45;9,25
2018-02-15 00:00;10,4
2018-02-15 00:15;6,95
2018-02-15 00:30;8,15
2018-02-15 00:45;9,05
2018-02-15 01:00;10,6
2018-02-15 01:15;10,35
2018-02-15 01:30;11,55
2018-02-15 01:45;11,35
2018-02-15 02:00;12,8
2018-02-15 02:15;11
2018-02-15 02:30;11,75
2018-02-15 02:45;12,2
2018-02-15 03:00;12,5
2018-02-15 03:15;12,6
2018-02-15 03:30;14,2
2018-02-15 03:45;15,9
2018-02-15 04:00;14,05
2018-02-15 04:15;14,85
2018-02-15 04:30;13,85
2018-02-15 04:45;16,7
2018-02-15 05:00;15,15
2018-02-15 05:15;15,7
2018-02-15 05:30;17,15
2018-02-15 05:45;13,4
2018-02-15 06:00;14,85
2018-02-15 06:15;12,5
2018-02-15 06:30;13
2018-02-15 06:45;10,45
2018-02-15 07:00;11,6
2018-02-15 07:15;11,85
2018-02-15 07:30;11,75
2018-02-15 07:45;18,25
2018-02-15 08:00;26,6
2018-02-15 08:15;30,45
2018-02-15 08:30;35,85
2018-02-15 08:45;44,55
2018-02-15 09:00;46,5
2018-02-15 09:15;48
2018-02-15 09:30;49,05
2018-02-15 09:45;51,1
2018-02-15 10:00;54,75
2018-02-15 10:15;62,05
2018-02-15 10:30;66,4
2018-02-15 10:45;61,65
2018-02-15 11:00;58,45
2018-02-15 11:15;56,7
2018-02-15 11:30;56,7
2018-02-15 11:45;61,4
2018-02-15 12:00;61,85
2018-02-15 12:15;62,15
2018-02-15 12:30;65,1
2018-02-15 12:45;63,65
2018-02-15 13:00;64,05
2018-02-15 13:15;64,4
2018-02-15 13:30;64,4
2018-02-15 13:45;62,9
2018-02-15 14:00;58,05
2018-02-15 14:15;53,3
2018-02-15 14:30;52,3
2018-02-15 14:45;51,3
2018-02-15 15:00;49,3
2018-02-15 15:15;47,95
2018-02-15 15:30;41,15
2018-02-15 15:45;40,35
2018-02-15 16:00;37,8
2018-02-15 16:15;39,2
2018-02-15 16:30;37,35
2018-02-15 16:45;35,85
2018-02-15 17:00;39,05
2018-02-15 17:15;35,75
2018-02-15 17:30;36,2
2018-02-15 17:45;32,4
2018-02-15 18:00;30,85
2018-02-15 18:15;25,5
2018-02-15 18:30;23,3
2018-02-15 18:45;21,45
2018-02-15 19:00;25,9
2018-02-15 19:15;26,95
2018-02-15 19:30;22,55
2018-02-15 19:45;22,5
2018-02-15 20:00;22,25
2018-02-15 20:15;20,75
2018-02-15 20:30;20,7
2018-02-15 20:45;20,25
2018-02-15 21:00;22,25
2018-02-15 21:15;23,9
2018-02-15 21:30;24,95
2018-02-15 21:45;18,75
2018-02-15 22:00;20
2018-02-15 22:15;18,9
2018-02-15 22:30;22,25
2018-02-15 22:45;18,45
2018-02-15 23:00;19,95
2018-02-15 23:15;16,3
2018-02-15 23:30;13,6
2018-02-15 23:45;12,05
2018-02-16 00:00;12,4
2018-02-16 00:15;15,55
2018-02-16 00:30;15,7
2018-02-16 00:45;13,85
2018-02-16 01:00;12,6
2018-02-16 01:15;10,15
2018-02-16 01:30;11,15
2018-02-16 01:45;12,8
2018-02-16 02:00;13,9
2018-02-16 02:15;13,3
2018-02-16 02:30;16
2018-02-16 02:45;15,75
2018-02-16 03:00;15,45
2018-02-16 03:15;13,85
2018-02-16 03:30;16,1
2018-02-16 03:45;14,85
2018-02-16 04:00;17,3
2018-02-16 04:15;15,9
2018-02-16 04:30;16,05
2018-02-16 04:45;14,9
2018-02-16 05:00;12,95
2018-02-16 05:15;14,25
2018-02-16 05:30;14,15
2018-02-16 05:45;13,5
2018-02-16 06:00;13
2018-02-16 06:15;12,95
2018-02-16 06:30;11,6
2018-02-16 06:45;12,85
2018-02-16 07:00;12,4
2018-02-16 07:15;9,65
2018-02-16 07:30;9,15
2018-02-16 07:45;21,65
2018-02-16 08:00;22,65
2018-02-16 08:15;25,55
2018-02-16 08:30;40,35
2018-02-16 08:45;43,1
2018-02-16 09:00;46,9
2018-02-16 09:15;48,9
2018-02-16 09:30;53,25
2018-02-16 09:45;55,65
2018-02-16 10:00;57,1
2018-02-16 10:15;58,1
2018-02-16 10:30;64,3
2018-02-16 10:45;59,8
2018-02-16 11:00;59,55
2018-02-16 11:15;57,2
2018-02-16 11:30;56,2
2018-02-16 11:45;52,35
2018-02-16 12:00;55,3
2018-02-16 12:15;59,5
2018-02-16 12:30;61,9
2018-02-16 12:45;65,95
2018-02-16 13:00;67,6
2018-02-16 13:15;66,5
2018-02-16 13:30;64,7
2018-02-16 13:45;64,5
2018-02-16 14:00;62,3
2018-02-16 14:15;62,15
2018-02-16 14:30;59,65
2018-02-16 14:45;60,15
2018-02-16 15:00;57,65
2018-02-16 15:15;60,1
2018-02-16 15:30;61,95
2018-02-16 15:45;63,2
2018-02-16 16:00;62,45
2018-02-16 16:15;59,4
2018-02-16 16:30;59,3
2018-02-16 16:45;58,25
2018-02-16 17:00;56,55
2018-02-16 17:15;48,75
2018-02-16 17:30;51,35
2018-02-16 17:45;48,15
2018-02-16 18:00;47,3
2018-02-16 18:15;41,55
2018-02-16 18:30;38,65
2018-02-16 18:45;37,2
2018-02-16 19:00;36,9
2018-02-16 19:15;36,25
2018-02-16 19:30;30,7
2018-02-16 19:45;27,7
2018-02-16 20:00;20
2018-02-16 20:15;15,4
2018-02-16 20:30;15,85
2018-02-16 20:45;15,7
2018-02-16 21:00;15,7
2018-02-16 21:15;18,7
2018-02-16 21:30;19,35
2018-02-16 21:45;19,75
2018-02-16 22:00;18,6
2018-02-16 22:15;19,7
2018-02-16 22:30;20,25
2018-02-16 22:45;19,95
2018-02-16 23:00;23
2018-02-16 23:15;20,45
2018-02-16 23:30;18,25
2018-02-16 23:45;17,4
2018-02-17 00:00;17,5
2018-02-17 00:15;14,8
2018-02-17 00:30;15,5
2018-02-17 00:45;13,85
2018-02-17 01:00;17,05
2018-02-17 01:15;13,55
2018-02-17 01:30;16,6
2018-02-17 01:45;16,35
2018-02-17 02:00;17,7
2018-02-17 02:15;15,7
2018-02-17 02:30;14,4
2018-02-17 02:45;13,5
2018-02-17 03:00;12,95
2018-02-17 03:15;13,4
2018-02-17 03:30;14,9
2018-02-17 03:45;13,9
2018-02-17 04:00;13,55
2018-02-17 04:15;14,4
2018-02-17 04:30;13,55
2018-02-17 04:45;14,35
2018-02-17 05:00;12
2018-02-17 05:15;12,55
2018-02-17 05:30;12,35
2018-02-17 05:45;12,8
2018-02-17 06:00;13
2018-02-17 06:15;12,55
2018-02-17 06:30;11,85
2018-02-17 06:45;12,25
2018-02-17 07:00;10,95
2018-02-17 07:15;11,9
2018-02-17 07:30;11,4
2018-02-17 07:45;13
2018-02-17 08:00;10,35
2018-02-17 08:15;8,95
2018-02-17 08:30;8,2
2018-02-17 08:45;12,1
2018-02-17 09:00;14,35
2018-02-17 09:15;13,5
2018-02-17 09:30;11,5
2018-02-17 09:45;10,45
2018-02-17 10:00;15
2018-02-17 10:15;13,6
2018-02-17 10:30;12,15
2018-02-17 10:45;12,6
2018-02-17 11:00;10,85
2018-02-17 11:15;13,2
2018-02-17 11:30;12,2
2018-02-17 11:45;12
2018-02-17 12:00;12,2
2018-02-17 12:15;12,25
2018-02-17 12:30;13,55
2018-02-17 12:45;11,8
2018-02-17 13:00;10,9
2018-02-17 13:15;11,4
2018-02-17 13:30;11,5
2018-02-17 13:45;11,1
2018-02-17 14:00;10,1
2018-02-17 14:15;10,95
2018-02-17 14:30;12,8
2018-02-17 14:45;14,4
2018-02-17 15:00;15,7
2018-02-17 15:15;18,55
2018-02-17 15:30;18,9
2018-02-17 15:45;18,6
2018-02-17 16:00;17,65
2018-02-17 16:15;16,55
2018-02-17 16:30;16,45
2018-02-17 16:45;17,55
2018-02-17 17:00;18,6
2018-02-17 17:15;16,9
2018-02-17 17:30;15,9
2018-02-17 17:45;16,4
2018-02-17 18:00;14,7
2018-02-17 18:15;14,6
2018-02-17 18:30;11,45
2018-02-17 18:45;10,3
2018-02-17 19:00;12,15
2018-02-17 19:15;7,6
2018-02-17 19:30;7,95
2018-02-17 19:45;8,45
2018-02-17 20:00;8,5
2018-02-17 20:15;7,3
2018-02-17 20:30;7,55
2018-02-17 20:45;9,2
2018-02-17 21:00;8,8
2018-02-17 21:15;9,15
2018-02-17 21:30;10,6
2018-02-17 21:45;12,45
2018-02-17 22:00;11,55
2018-02-17 22:15;13,85
2018-02-17 22:30;11,65
2018-02-17 22:45;7,6
2018-02-17 23:00;10,7
2018-02-17 23:15;7,8
2018-02-17 23:30;7,7
2018-02-17 23:45;9,05
2018-02-18 00:00;8,15
2018-02-18 00:15;5,6
2018-02-18 00:30;4,45
2018-02-18 00:45;4,45
2018-02-18 01:00;5,8
2018-02-18 01:15;6
2018-02-18 01:30;7,2
2018-02-18 01:45;8,45
2018-02-18 02:00;7,6
2018-02-18 02:15;7,4
2018-02-18 02:30;7,9
2018-02-18 02:45;7,45
2018-02-18 03:00;8,5
2018-02-18 03:15;8,6
2018-02-18 03:30;8,9
2018-02-18 03:45;8,65
2018-02-18 04:00;9,4
2018-02-18 04:15;10,1
2018-02-18 04:30;10,35
2018-02-18 04:45;10
2018-02-18 05:00;9,25
2018-02-18 05:15;8,95
2018-02-18 05:30;9,65
2018-02-18 05:45;9,65
2018-02-18 06:00;10
2018-02-18 06:15;9,6
2018-02-18 06:30;9,15
2018-02-18 06:45;8,55
2018-02-18 07:00;8,55
2018-02-18 07:15;9,05
2018-02-18 07:30;9,2
2018-02-18 07:45;6,8
2018-02-18 08:00;9,05
2018-02-18 08:15;7,3
2018-02-18 08:30;6,95
2018-02-18 08:45;6,2
2018-02-18 09:00;5,2
2018-02-18 09:15;4,6
2018-02-18 09:30;4,35
2018-02-18 09:45;11
2018-02-18 10:00;12,05
2018-02-18 10:15;8,6
2018-02-18 10:30;7,75
2018-02-18 10:45;9,75
2018-02-18 11:00;10,75
2018-02-18 11:15;12,35
2018-02-18 11:30;12,5
2018-02-18 11:45;12,2
2018-02-18 12:00;12,6
2018-02-18 12:15;12,05
2018-02-18 12:30;13,4
2018-02-18 12:45;13,25
2018-02-18 13:00;10,9
2018-02-18 13:15;10,5
2018-02-18 13:30;11,9
2018-02-18 13:45;12,35
2018-02-18 14:00;11,3
2018-02-18 14:15;13,2
2018-02-18 14:30;15,2
2018-02-18 14:45;14,3
2018-02-18 15:00;15,85
2018-02-18 15:15;14
2018-02-18 15:30;14,55
2018-02-18 15:45;13,2
2018-02-18 16:00;12,6
2018-02-18 16:15;11,65
2018-02-18 16:30;12,2
2018-02-18 16:45;12,4
2018-02-18 17:00;13,05
2018-02-18 17:15;10,75
2018-02-18 17:30;12
2018-02-18 17:45;12
2018-02-18 18:00;12,7
2018-02-18 18:15;13,1
2018-02-18 18:30;11,9
2018-02-18 18:45;10,75
2018-02-18 19:00;12,15
2018-02-18 19:15;7,2
2018-02-18 19:30;5,7
2018-02-18 19:45;6,4
2018-02-18 20:00;7,7
2018-02-18 20:15;7,45
2018-02-18 20:30;6,1
2018-02-18 20:45;5,85
2018-02-18 21:00;5,75
2018-02-18 21:15;8
2018-02-18 21:30;6,5
2018-02-18 21:45;6,3
2018-02-18 22:00;4,7
2018-02-18 22:15;4,15
2018-02-18 22:30;4,75
2018-02-18 22:45;5,25
2018-02-18 23:00;8,25
2018-02-18 23:15;6,85
2018-02-18 23:30;8,5
2018-02-18 23:45;9,15

